Low Moor, IA

1:25 PM CST on February 26, 2017 (GMT -0600)
Clinton Municipal

Weather History for KCWI - November, 2011

Change the Weather History Date:

Thursday, November 3, 2011

  Actual Average Record
Temperature  
Mean Temperature - -  
Max Temperature - 52 °F 75 °F (1964)
Min Temperature - 35 °F 12 °F (1951)
Moisture  
Dew Point -    
Average Humidity    
Maximum Humidity    
Minimum Humidity    
Precipitation  
Precipitation 0.14 in - - ()
Sea Level Pressure  
Sea Level Pressure 30.10 in    
Wind  
Wind Speed 18 mph (NNE)    
Max Wind Speed 28 mph    
Max Gust Speed 34 mph    
Visibility 10 miles    
Events      
Averages and records for this station are not official NWS values.
T = Trace of Precipitation, MM = Missing Value Source: NWS Daily Summary

Daily Weather History Graph

Daily Weather History Graph

Search for Another Location

Airport or City:

Trip Planner

Search our weather history database for the weather conditions in past years. The results will help you decide how hot, cold, wet, or windy it might be!

Date:

Astronomy

Nov. 03, 2011 Rise Set
Actual Time 7:35 AM CDT 5:53 PM CDT
Civil Twilight 7:06 AM CDT 6:22 PM CDT
Nautical Twilight 6:33 AM CDT 6:55 PM CDT
Astronomical Twilight 6:01 AM CDT 7:27 PM CDT
Moon 2:22 PM CDT (11/3) 12:42 AM CDT (11/3)
Length of Visible Light 11h 15m
Length of Day
10h 17m
First Quarter, 60% of the Moon is Illuminated
Nov 3
First Quarter
Nov 10
Full
Nov 18
Last Quarter
Nov 25
New
Dec 2
First Quarter

Hourly Weather History & Observations

Time (CDT) Temp. Dew Point Humidity Pressure Visibility Wind Dir Wind Speed Gust Speed Precip Events Conditions
12:15 AM - - N/A% 30.09 in 10.0 mi NE 17.3 mph 20.7 mph 0.02 in   Overcast
12:55 AM - - N/A% 30.08 in 10.0 mi NNE 19.6 mph 23.0 mph 0.06 in   Overcast
1:15 AM - - N/A% 30.07 in 10.0 mi NNE 16.1 mph 23.0 mph 0.03 in   Overcast
1:35 AM - - N/A% 30.06 in 10.0 mi NE 21.9 mph - 0.05 in   Overcast
1:55 AM - - N/A% 30.06 in 10.0 mi NE 15.0 mph 24.2 mph 0.06 in   Overcast
2:15 AM - - N/A% 30.05 in 10.0 mi NE 17.3 mph 23.0 mph 0.01 in   Overcast
2:35 AM - - N/A% 30.05 in 10.0 mi NE 17.3 mph 23.0 mph 0.01 in   Overcast
2:55 AM - - N/A% 30.04 in 10.0 mi NE 21.9 mph 26.5 mph 0.01 in   Overcast
3:15 AM - - N/A% 30.02 in 10.0 mi NE 19.6 mph 29.9 mph 0.01 in   Overcast
3:35 AM - - N/A% 30.01 in 10.0 mi NE 24.2 mph 29.9 mph 0.01 in   Overcast
4:15 AM - - N/A% 29.98 in 10.0 mi NE 26.5 mph 32.2 mph N/A   Overcast
4:35 AM - - N/A% 30.00 in 10.0 mi NE 20.7 mph 33.4 mph N/A   Overcast
4:55 AM - - N/A% 30.00 in 10.0 mi NE 27.6 mph 34.5 mph N/A   Overcast
5:15 AM - - N/A% 30.01 in 10.0 mi ENE 23.0 mph 31.1 mph N/A   Overcast
5:35 AM - - N/A% 30.00 in 10.0 mi NE 23.0 mph 34.5 mph N/A   Overcast
5:55 AM - - N/A% 30.01 in 10.0 mi NE 23.0 mph 28.8 mph N/A   Overcast
6:15 AM - - N/A% 30.02 in 10.0 mi NE 17.3 mph 23.0 mph N/A   Overcast
6:35 AM - - N/A% 30.02 in 10.0 mi NE 19.6 mph 28.8 mph N/A   Overcast
7:15 AM - - N/A% 30.03 in 10.0 mi NE 20.7 mph 27.6 mph N/A   Overcast
7:35 AM - - N/A% 30.04 in 10.0 mi NE 18.4 mph 33.4 mph N/A   Overcast
7:55 AM - - N/A% 30.04 in 10.0 mi NE 18.4 mph 25.3 mph N/A   Overcast
8:15 AM - - N/A% 30.04 in 10.0 mi NE 19.6 mph - N/A   Overcast
8:35 AM - - N/A% 30.05 in 10.0 mi NE 20.7 mph 32.2 mph N/A   Overcast
8:55 AM - - N/A% 30.03 in 10.0 mi NNE 19.6 mph 31.1 mph N/A   Overcast
9:35 AM - - N/A% 30.07 in 10.0 mi NE 20.7 mph 33.4 mph N/A   Overcast
9:55 AM - - N/A% 30.09 in 10.0 mi NNE 18.4 mph 21.9 mph N/A   Overcast
10:15 AM - - N/A% 30.10 in 10.0 mi North 17.3 mph 23.0 mph N/A   Overcast
10:35 AM - - N/A% 30.11 in 10.0 mi NNE 16.1 mph 24.2 mph N/A   Overcast
10:55 AM - - N/A% 30.12 in 10.0 mi North 17.3 mph - N/A   Overcast
11:15 AM - - N/A% 30.12 in 10.0 mi NNE 17.3 mph 21.9 mph N/A   Overcast
11:35 AM - - N/A% 30.13 in 10.0 mi NNE 19.6 mph 26.5 mph N/A   Overcast
11:55 AM - - N/A% 30.12 in 10.0 mi NNE 18.4 mph 26.5 mph N/A   Overcast
12:35 PM - - N/A% 30.12 in 10.0 mi NNE 16.1 mph 26.5 mph N/A   Overcast
12:55 PM - - N/A% 30.11 in 10.0 mi NNE 19.6 mph - N/A   Overcast
1:15 PM - - N/A% 30.11 in 10.0 mi NNE 17.3 mph 24.2 mph N/A   Overcast
1:35 PM - - N/A% 30.10 in 10.0 mi NNE 18.4 mph 24.2 mph N/A   Overcast
1:55 PM - - N/A% 30.09 in 10.0 mi NNE 20.7 mph 25.3 mph N/A   Overcast
2:15 PM - - N/A% 30.09 in 10.0 mi NE 21.9 mph 28.8 mph N/A   Overcast
2:35 PM - - N/A% 30.09 in 10.0 mi NNE 21.9 mph 27.6 mph N/A   Scattered Clouds
2:55 PM - - N/A% 30.10 in 10.0 mi NE 24.2 mph 28.8 mph N/A   Clear
3:15 PM - - N/A% 30.11 in 6.0 mi NNE 18.4 mph 28.8 mph N/A   Clear
3:35 PM - - N/A% 30.12 in 10.0 mi NNE 21.9 mph 27.6 mph N/A   Clear
3:55 PM - - N/A% 30.13 in 10.0 mi NNE 19.6 mph 27.6 mph N/A   Clear
4:15 PM - - N/A% 30.13 in 10.0 mi NNE 16.1 mph 20.7 mph N/A   Clear
4:35 PM - - N/A% 30.14 in 10.0 mi North 13.8 mph 23.0 mph N/A   Clear
4:55 PM - - N/A% 30.14 in 10.0 mi NNE 16.1 mph 23.0 mph N/A   Clear
5:15 PM - - N/A% 30.14 in 10.0 mi North 15.0 mph 21.9 mph N/A   Clear
5:35 PM - - N/A% 30.16 in 10.0 mi NNE 15.0 mph - N/A   Clear
5:55 PM - - N/A% 30.17 in 10.0 mi NNE 12.7 mph 21.9 mph N/A   Clear
6:15 PM - - N/A% 30.18 in 10.0 mi NNE 10.4 mph - N/A   Clear
6:35 PM - - N/A% 30.19 in 10.0 mi NNE 6.9 mph - N/A   Clear
6:55 PM - - N/A% 30.19 in 10.0 mi North 9.2 mph - N/A   Clear
7:15 PM - - N/A% 30.20 in 10.0 mi NNE 8.1 mph - N/A   Clear
7:55 PM - - N/A% 30.21 in 10.0 mi NNE 9.2 mph - N/A   Clear
8:15 PM - - N/A% 30.21 in 10.0 mi North 9.2 mph - N/A   Clear
8:35 PM - - N/A% 30.21 in 10.0 mi North 9.2 mph - N/A   Clear
8:55 PM - - N/A% 30.22 in 10.0 mi North 5.8 mph - N/A   Clear
9:15 PM - - N/A% 30.22 in 10.0 mi Calm Calm - N/A   Clear
9:35 PM - - N/A% 30.22 in 10.0 mi North 8.1 mph - N/A   Clear
9:55 PM - - N/A% 30.23 in 10.0 mi NNE 3.5 mph - N/A   Clear
10:15 PM - - N/A% 30.24 in 10.0 mi NE 3.5 mph - N/A   Clear
10:35 PM - - N/A% 30.25 in 10.0 mi North 6.9 mph - N/A   Clear
10:55 PM - - N/A% 30.26 in 10.0 mi North 5.8 mph - N/A   Clear
11:55 PM - - N/A% 30.26 in 10.0 mi North 8.1 mph - N/A   Clear